| time (UTC) | temp F | wind direction | speed MPH | gust MPH | rain 1hr in | rain 24hr in | rain mn in | humidity % | barometer mb |
| 20260906180604 | 65 | 0.0 | 0.0 | 0.00 | 0.00 | 0.00 | 1025.2 | ||
| 20260906175558 | 65 | 0.0 | 1.0 | 0.00 | 0.00 | 0.00 | 1025.2 | ||
| 20260906174555 | 67 | 0.0 | 0.0 | 0.00 | 0.00 | 0.00 | 1025.1 | ||
| 20260906173550 | 68 | 0.0 | 0.0 | 0.00 | 0.00 | 0.00 | 1025.2 | ||
| 20260906172546 | 69 | 0.0 | 0.0 | 0.00 | 0.00 | 0.00 | 1025.3 | ||
| 20260906171543 | 70 | 0.0 | 1.0 | 0.00 | 0.00 | 0.00 | 1025.4 | ||
| 20260906170539 | 71 | 0.0 | 0.0 | 0.00 | 0.00 | 0.00 | 1025.4 | ||
| 20260906165535 | 72 | 0.0 | 0.0 | 0.00 | 0.00 | 0.00 | 1025.3 | ||
| 20260906164531 | 73 | 0.0 | 0.0 | 0.00 | 0.00 | 0.00 | 1025.4 | ||
| 20260906163527 | 74 | 0.0 | 0.0 | 0.00 | 0.00 | 0.00 | 1025.4 | ||
| 20260906162525 | 77 | 0.0 | 0.0 | 0.00 | 0.00 | 0.00 | 1025.4 | ||
| 20260906161520 | 77 | 0.0 | 1.0 | 0.00 | 0.00 | 0.00 | 1025.4 | ||
| 20260906160516 | 78 | 0.0 | 0.0 | 0.00 | 0.00 | 0.00 | 1025.4 | ||
| 20260906155612 | 79 | 0.0 | 1.0 | 0.00 | 0.00 | 0.00 | 1025.4 | ||
| 20260906154609 | 80 | 0 | 1.0 | 4.0 | 0.00 | 0.00 | 0.00 | 1025.6 | |
| 20260906153605 | 79 | 135 | 0.0 | 3.0 | 0.00 | 0.00 | 0.00 | 1025.5 | |
| 20260906152601 | 80 | 90 | 0.0 | 3.0 | 0.00 | 0.00 | 0.00 | 1025.5 | |
| 20260906151557 | 79 | 0.0 | 0.0 | 0.00 | 0.00 | 0.00 | 1025.5 | ||
| 20260906150553 | 79 | 0.0 | 1.0 | 0.00 | 0.00 | 0.00 | 1025.6 | ||
| 20260906145549 | 79 | 0.0 | 2.0 | 0.00 | 0.00 | 0.00 | 1025.6 | ||
| 20260906144546 | 79 | 0.0 | 0.0 | 0.00 | 0.00 | 0.00 | 1025.9 | ||
| 20260906143542 | 80 | 0.0 | 1.0 | 0.00 | 0.00 | 0.00 | 1026.1 | ||
| 20260906142539 | 79 | 0 | 0.0 | 3.0 | 0.00 | 0.00 | 0.00 | 1026.3 | |
| 20260906141534 | 78 | 175 | 0.0 | 3.0 | 0.00 | 0.00 | 0.00 | 1026.3 | |
| 20260906140531 | 79 | 180 | 2.0 | 5.0 | 0.00 | 0.00 | 0.00 | 1026.4 | |
| 20260906135527 | 80 | 180 | 0.0 | 3.0 | 0.00 | 0.00 | 0.00 | 1026.4 | |
| 20260906134524 | 79 | 0.0 | 2.0 | 0.00 | 0.00 | 0.00 | 1026.4 | ||
| 20260906133519 | 78 | 0.0 | 1.0 | 0.00 | 0.00 | 0.00 | 1026.5 | ||
| 20260906132516 | 77 | 259 | 1.0 | 4.0 | 0.00 | 0.00 | 0.00 | 1026.6 | |
| 20260906131612 | 76 | 183 | 1.0 | 3.0 | 0.00 | 0.00 | 0.00 | 1026.7 | |
| 20260906130609 | 78 | 0.0 | 0.0 | 0.00 | 0.00 | 0.00 | 1026.7 | ||
| 20260906124600 | 77 | 338 | 0.0 | 3.0 | 0.00 | 0.00 | 0.00 | 1026.9 | |
| 20260906123557 | 76 | 90 | 0.0 | 4.0 | 0.00 | 0.00 | 0.00 | 1026.9 | |
| 20260906122553 | 75 | 0.0 | 3.0 | 0.00 | 0.00 | 0.00 | 1027.0 | ||
| 20260906121550 | 74 | 170 | 1.0 | 4.0 | 0.00 | 0.00 | 0.00 | 1027.2 | |
| 20260906115543 | 75 | 180 | 0.0 | 4.0 | 0.00 | 0.00 | 0.00 | 1027.3 | |
| 20260906113535 | 73 | 347 | 1.0 | 5.0 | 0.00 | 0.00 | 0.00 | 1027.5 | |
| 20260906112532 | 73 | 203 | 0.0 | 2.0 | 0.00 | 0.00 | 0.00 | 1027.5 | |
| 20260906111528 | 73 | 270 | 0.0 | 3.0 | 0.00 | 0.00 | 0.00 | 1027.6 | |
| 20260906110524 | 74 | 0.0 | 0.0 | 0.00 | 0.00 | 0.00 | 1027.7 | ||
| 20260906105521 | 72 | 0.0 | 2.0 | 0.00 | 0.00 | 0.00 | 1027.8 | ||
| 20260906104517 | 71 | 225 | 0.0 | 3.0 | 0.00 | 0.00 | 0.00 | 1027.9 | |
| 20260906103614 | 72 | 225 | 1.0 | 3.0 | 0.00 | 0.00 | 0.00 | 1028.0 | |
| 20260906102610 | 71 | 158 | 0.0 | 4.0 | 0.00 | 0.00 | 0.00 | 1028.1 | |
| 20260906101607 | 70 | 157 | 1.0 | 4.0 | 0.00 | 0.00 | 0.00 | 1027.9 | |
| 20260906100603 | 71 | 0.0 | 1.0 | 0.00 | 0.00 | 0.00 | 1028.0 | ||
| 20260906095558 | 71 | 0.0 | 4.0 | 0.00 | 0.00 | 0.00 | 1028.2 | ||
| 20260906094554 | 70 | 180 | 0.0 | 2.0 | 0.00 | 0.00 | 0.00 | 1028.2 | |
| 20260906093550 | 71 | 145 | 0.0 | 3.0 | 0.00 | 0.00 | 0.00 | 1028.3 | |
| 20260906092547 | 70 | 0.0 | 1.0 | 0.00 | 0.00 | 0.00 | 1028.4 | ||
| 20260906091543 | 70 | 0.0 | 2.0 | 0.00 | 0.00 | 0.00 | 1028.4 | ||
| 20260906090540 | 69 | 0.0 | 0.0 | 0.00 | 0.00 | 0.00 | 1028.5 | ||
| 20260906084532 | 69 | 0.0 | 2.0 | 0.00 | 0.01 | 0.00 | 1028.4 | ||
| 20260906083528 | 68 | 45 | 0.0 | 4.0 | 0.00 | 0.01 | 0.00 | 1028.4 | |
| 20260906082524 | 68 | 90 | 0.0 | 3.0 | 0.00 | 0.01 | 0.00 | 1028.5 | |
| 20260906081521 | 67 | 45 | 1.0 | 3.0 | 0.00 | 0.01 | 0.00 | 1028.6 | |
| 20260906080517 | 67 | 0.0 | 0.0 | 0.00 | 0.01 | 0.00 | 1028.6 | ||
| 20260906075614 | 67 | 180 | 1.0 | 2.0 | 0.00 | 0.01 | 0.00 | 1028.5 | |
| 20260906074610 | 66 | 0.0 | 2.0 | 0.00 | 0.01 | 0.00 | 1028.2 | ||
| 20260906073607 | 65 | 0.0 | 0.0 | 0.00 | 0.01 | 0.00 | 1028.2 | ||
| 20260906072603 | 64 | 0.0 | 2.0 | 0.00 | 0.01 | 0.00 | 1028.2 | ||
| 20260906071559 | 64 | 0.0 | 1.0 | 0.00 | 0.01 | 0.00 | 1028.1 | ||
| 20260906064548 | 63 | 0.0 | 0.0 | 0.00 | 0.01 | 0.00 | 1028.2 | ||
| 20260906063544 | 60 | 0.0 | 0.0 | 0.00 | 0.01 | 0.00 | 1028.0 | ||
| 20260906062540 | 57 | 0.0 | 0.0 | 0.00 | 0.01 | 0.00 | 1028.0 | ||
| 20260906061536 | 53 | 0.0 | 0.0 | 0.00 | 0.01 | 0.00 | 1028.0 | ||
| 20260906055558 | 49 | 0.0 | 0.0 | 0.00 | 0.01 | 0.00 | 1027.8 | ||
| 20260906054554 | 48 | 0.0 | 0.0 | 0.00 | 0.01 | 0.00 | 1027.6 | ||
| 20260906053551 | 47 | 0.0 | 0.0 | 0.00 | 0.01 | 0.00 | 1027.7 | ||
| 20260906051543 | 46 | 0.0 | 1.0 | 0.00 | 0.01 | 0.00 | 1027.5 | ||
| 20260906050540 | 47 | 0.0 | 0.0 | 0.00 | 0.01 | 0.00 | 1027.3 | ||
| 20260906045536 | 47 | 0.0 | 0.0 | 0.00 | 0.01 | 0.00 | 1027.1 | ||
| 20260906044532 | 47 | 0.0 | 0.0 | 0.00 | 0.01 | 0.00 | 1027.3 | ||
| 20260906043558 | 47 | 0.0 | 0.0 | 0.00 | 0.01 | 0.00 | 1027.2 | ||
| 20260906042555 | 47 | 0.0 | 0.0 | 0.00 | 0.01 | 0.00 | 1027.3 | ||
| 20260906041551 | 47 | 0.0 | 0.0 | 0.00 | 0.01 | 0.00 | 1027.2 | ||
| 20260906040547 | 48 | 0.0 | 0.0 | 0.00 | 0.01 | 0.00 | 1027.2 | ||
| 20260906035543 | 48 | 0.0 | 0.0 | 0.00 | 0.01 | 0.00 | 1027.3 | ||
| 20260906033535 | 49 | 0.0 | 0.0 | 0.00 | 0.01 | 0.00 | 1027.0 | ||
| 20260906032531 | 49 | 0.0 | 0.0 | 0.00 | 0.01 | 0.00 | 1027.0 | ||
| 20260906031527 | 50 | 0.0 | 0.0 | 0.00 | 0.01 | 0.00 | 1027.0 | ||
| 20260906030524 | 50 | 0.0 | 0.0 | 0.00 | 0.01 | 0.00 | 1026.9 | ||
| 20260906025520 | 50 | 0.0 | 0.0 | 0.00 | 0.01 | 0.00 | 1026.8 | ||
| 20260906024517 | 50 | 0.0 | 0.0 | 0.00 | 0.01 | 0.00 | 1026.9 | ||
| 20260906022609 | 51 | 0.0 | 0.0 | 0.00 | 0.01 | 0.00 | 1026.5 | ||
| 20260906020601 | 52 | 0.0 | 0.0 | 0.00 | 0.01 | 0.00 | 1026.3 | ||
| 20260906015557 | 53 | 0.0 | 0.0 | 0.00 | 0.01 | 0.00 | 1026.2 | ||
| 20260906014554 | 53 | 0.0 | 0.0 | 0.00 | 0.01 | 0.00 | 1026.1 | ||
| 20260906013550 | 53 | 0.0 | 2.0 | 0.00 | 0.01 | 0.00 | 1026.1 | ||
| 20260906012546 | 52 | 0.0 | 2.0 | 0.00 | 0.01 | 0.00 | 1026.1 | ||
| 20260906011542 | 53 | 0.0 | 0.0 | 0.00 | 0.01 | 0.00 | 1026.2 | ||
| 20260906010539 | 53 | 0.0 | 1.0 | 0.00 | 0.01 | 0.00 | 1026.1 | ||
| 20260906005535 | 53 | 0.0 | 2.0 | 0.00 | 0.01 | 0.00 | 1026.1 | ||
| 20260906004532 | 53 | 0.0 | 2.0 | 0.00 | 0.02 | 0.00 | 1026.0 | ||
| 20260906003528 | 52 | 0.0 | 2.0 | 0.00 | 0.02 | 0.00 | 1026.1 | ||
| 20260906002524 | 52 | 0.0 | 1.0 | 0.00 | 0.02 | 0.00 | 1026.1 | ||
| 20260906001519 | 52 | 0.0 | 0.0 | 0.00 | 0.02 | 0.00 | 1026.0 | ||
| 20260906000516 | 52 | 0.0 | 0.0 | 0.00 | 0.02 | 0.00 | 1026.2 | ||
| 20260905235612 | 53 | 0.0 | 0.0 | 0.00 | 0.02 | 0.00 | 1026.1 | ||
| 20260905234609 | 53 | 0.0 | 0.0 | 0.00 | 0.02 | 0.00 | 1025.9 | ||
| 20260905233605 | 53 | 0.0 | 0.0 | 0.00 | 0.02 | 0.00 | 1025.8 | ||
| 20260905232601 | 54 | 0.0 | 0.0 | 0.00 | 0.02 | 0.00 | 1025.7 | ||
| 20260905231557 | 54 | 0.0 | 0.0 | 0.00 | 0.02 | 0.00 | 1025.5 | ||
| 20260905225549 | 55 | 0.0 | 0.0 | 0.00 | 0.02 | 0.00 | 1025.5 | ||
| 20260905224546 | 55 | 0.0 | 0.0 | 0.00 | 0.02 | 0.00 | 1025.4 | ||
| 20260905223542 | 55 | 0.0 | 0.0 | 0.00 | 0.02 | 0.00 | 1025.4 | ||
| 20260905222539 | 55 | 0.0 | 0.0 | 0.00 | 0.02 | 0.00 | 1025.2 | ||
| 20260905221535 | 55 | 0.0 | 0.0 | 0.00 | 0.02 | 0.00 | 1025.0 | ||
| 20260905220531 | 56 | 0.0 | 0.0 | 0.00 | 0.02 | 0.00 | 1025.0 | ||
| 20260905215527 | 58 | 0.0 | 0.0 | 0.00 | 0.02 | 0.02 | 1025.0 | ||
| 20260905214523 | 58 | 0.0 | 0.0 | 0.00 | 0.02 | 0.02 | 1024.9 | ||
| 20260905213519 | 58 | 0.0 | 0.0 | 0.00 | 0.02 | 0.02 | 1024.8 | ||
| 20260905212515 | 58 | 0.0 | 4.0 | 0.00 | 0.02 | 0.02 | 1024.8 | ||
| 20260905211612 | 57 | 0 | 0.0 | 4.0 | 0.00 | 0.02 | 0.02 | 1024.8 | |
| 20260905205604 | 57 | 0.0 | 0.0 | 0.00 | 0.02 | 0.02 | 1024.7 | ||
| 20260905203557 | 57 | 0.0 | 0.0 | 0.00 | 0.02 | 0.02 | 1024.6 | ||
| 20260905202553 | 57 | 0.0 | 0.0 | 0.00 | 0.02 | 0.02 | 1024.6 | ||
| 20260905201550 | 58 | 0.0 | 0.0 | 0.00 | 0.02 | 0.02 | 1024.5 | ||
| 20260905200545 | 58 | 0.0 | 0.0 | 0.00 | 0.02 | 0.02 | 1024.4 | ||
| 20260905195542 | 59 | 0.0 | 0.0 | 0.00 | 0.02 | 0.02 | 1024.3 | ||
| 20260905194538 | 60 | 0.0 | 2.0 | 0.00 | 0.02 | 0.02 | 1024.2 | ||
| 20260905192600 | 61 | 0.0 | 2.0 | 0.00 | 0.02 | 0.02 | 1023.9 | ||
| 20260905191557 | 62 | 0.0 | 1.0 | 0.00 | 0.02 | 0.02 | 1023.9 | ||
| 20260905190552 | 62 | 0.0 | 0.0 | 0.00 | 0.02 | 0.02 | 1023.8 | ||
| 20260905185549 | 62 | 0.0 | 1.0 | 0.00 | 0.02 | 0.02 | 1023.8 | ||
| 20260905184545 | 63 | 0.0 | 0.0 | 0.00 | 0.02 | 0.02 | 1023.9 | ||
| 20260905183541 | 64 | 0.0 | 0.0 | 0.00 | 0.02 | 0.02 | 1023.7 | ||
| 20260905182537 | 65 | 0.0 | 0.0 | 0.00 | 0.02 | 0.02 | 1023.6 |